Regional Weather Roundup
Issued by NWS Green Bay, WI

Home | Current Version | Previous Version | Graphics & Text | Print | Product List | Glossary Off
Versions: 1 2 3 4 5 6 7 8 9 10 11 12 13 14 15 16 17 18 19 20 21 22 23 24 25 26 27 28 29 30 31 32 33 34 35 36 37 38 39 40 41 42 43 44 45 46 47 48 49 50

000
ASUS43 KGRB 211610
RWRGRB

NORTH-CENTRAL AND NORTHEAST WISCONSIN REGIONAL WEATHER ROUNDUP
NATIONAL WEATHER SERVICE GREEN BAY WI
1000 AM CST SAT JAN 21 2017

WIZ005-009-010>012-018-019-211700-
NORTH CENTRAL WISCONSIN

CITY           SKY/WX    TMP DP  RH WIND       PRES   REMARKS
IRONWOOD       CLOUDY    36  34  92 SE6       29.51F
MANITOWISH WTR DRIZZLE   33  33 100 E5        29.49S
ARBOR VITAE    MIX PCPN  37  36  96 SE7       29.50S
EAGLE RIVER    CLOUDY    33  33 100 SE6       29.51S
LAND O LAKES   CLOUDY    34  33  98 E7        29.52F
RHINELANDER    LGT RAIN  34  34 100 E9        29.51R FOG
PHILLIPS       LGT RAIN  33  33 100 E5        29.47S
ANTIGO         CLOUDY    32  32 100 E9        29.50F FOG
TOMAHAWK       CLOUDY    34  33  96 E5        29.49F FOG
MERRILL        CLOUDY    35  35 100 E7          N/A  FOG
$$

WIZ013-073-211700-
NORTHEAST WISCONSIN

CITY           SKY/WX    TMP DP  RH WIND       PRES   REMARKS
IRON MOUNTAIN  FOG       33  32  96 E6        29.55F VSB<1/4
MARINETTE      NOT AVBL
OCONTO         CLOUDY    35  35 100 E6        29.56R VSB 3/4
$$

WIZ017-030-035>037-045-211700-
CENTRAL WISCONSIN

CITY           SKY/WX    TMP DP  RH WIND       PRES   REMARKS
MEDFORD        DRIZZLE   34  33  99 E9        29.45F
WAUSAU         FOG       34  34 100 E9        29.47F VSB 1/2
MOSINEE        FOG       36  36 100 E12       29.48F VSB 1/4
MARSHFIELD     FOG       34  33  96 E13       29.44F VSB 1/4
WISC RAPIDS    FOG       35  35 100 E8        29.47F VSB 1/4
STEVENS POINT  FOG       33  33 100 E8        29.48F VSB 1/4
WAUPACA        FOG       38  37  97 CALM      29.51F VSB 1/4
SHAWANO        FOG       36  35  96 E6        29.54S VSB 1/4
CLINTONVILLE   FOG       36  34  93 E6        29.52S VSB 1/4
WAUTOMA        FOG       36  36 100 E8        29.49F VSB 1/4
$$

WIZ038-039-048-051-211700-
FOX VALLEY

CITY           SKY/WX    TMP DP  RH WIND       PRES   REMARKS
NWS GREEN BAY  FOG       37  37 100 NE8       29.53F VSB 1/4
APPLETON       FOG       36  36 100 E6        29.50F VSB 1/8
OSHKOSH        FOG       36  36 100 E3        29.50S VSB<1/4
FOND DU LAC    CLOUDY    40  37  89 SE9       29.49F FOG
$$

WIZ022-050-052-211700-
EAST CENTRAL WISCONSIN

CITY           SKY/WX    TMP DP  RH WIND       PRES   REMARKS
EPHRAIM        FOG       36  36 100 E6        29.56S VSB 1/2
WASHINGTON ISL CLOUDY    36  35  98 E5        29.58S FOG
STURGEON BAY   LGT RAIN  37  37 100 E9        29.56S VSB 1/4
MANITOWOC      LGT RAIN  39  37  92 E6        29.54F VSB 1/4
SHEBOYGAN      FOG       38  37  97 CALM      29.52S VSB<1/4
$$

LMZ563-521-522-541>543-211700-
LAKESHORE

STATION/POSITION TIME  TEMP    WIND        PRES    VSBY  WAVE
                       AIR SEA DIR/SP/G                  HT/PER
                 (UTC) (F)     (DEG/KT/KT) (MB)    (MI)  (FT/S)
SHEBOYGAN LKSHOR 1600   40     140/ 11/ 11 1000.0R
KEWAUNEE LKSHORE 1548   37      50/  4/  6 1000.3F
NORTHPORT PIER   1600   34     120/  3/  8 1002.0
SISTER BAY LKSHO 1550   37     150/  7/ 11   N/A
$$




USA.gov is the U.S. government's official web portal to all federal, state and local government web resources and services.